Wind_Speed
11 11 11 11 12 12 12 12 13 13 14 14 15 15 16 17 18 18 19 19 20 20 21 21 21 22 22 23 24 25 27 28 29 29 29 30 33 35 36 37 38 39 39 39 40 40 39 39 38 37 35 35 35 33 33 33 32 31 30 28 27 24 22 22 19 16 16 15 11 9 10 10 8 8 9 12 14 15 16 18 21 23 26 23 20 24 26 26
12 12 12 13 13 13 14 14 15 15 16 16 17 18 18 19 20 20 21 22 22 23 23 23 23 24 24 24 25 26 27 28 27 27 28 30 32 33 34 35 37 38 39 40 40 41 40 40 40 38 37 37 36 35 35 34 33 33 31 30 29 27 25 24 22 18 18 16 12 11 11 11 10 9 10 12 14 14 15 16 19 21 25 24 20 24 27 26
14 14 14 14 15 15 16 16 17 17 18 18 19 20 20 21 21 22 23 24 25 25 26 26 26 26 26 26 27 28 28 28 27 27 28 30 31 31 32 33 35 37 39 40 40 41 41 41 41 40 39 38 38 37 36 35 35 34 33 32 31 29 28 28 26 23 20 16 13 12 12 11 10 11 12 13 13 14 14 14 16 18 22 23 19 23 26 26
16 16 16 16 17 17 18 18 19 19 20 20 21 21 22 23 23 24 25 26 27 28 28 29 29 29 29 29 30 30 30 29 28 29 30 31 31 31 31 32 34 36 37 39 40 41 41 42 42 42 41 40 39 39 38 37 36 35 35 34 33 32 31 30 29 27 26 21 16 14 13 12 12 13 13 13 12 13 14 14 14 16 19 22 20 23 25 26
18 18 18 18 19 19 20 20 20 21 21 22 22 23 24 25 26 27 28 29 30 31 31 32 32 32 32 32 33 33 32 30 30 32 32 33 33 31 31 31 32 34 36 37 39 41 41 42 42 42 42 41 41 40 39 39 38 37 37 36 35 34 33 31 30 30 29 27 24 19 16 14 14 14 15 14 12 12 13 14 13 15 18 21 21 23 25 26
19 19 19 20 20 21 21 21 22 22 23 24 24 25 26 27 28 29 30 32 33 34 34 35 35 35 35 35 36 35 34 33 34 35 35 35 35 33 33 32 32 33 34 36 38 40 40 41 42 43 43 43 43 42 42 41 40 39 38 37 37 36 34 33 32 31 30 29 27 25 22 18 16 16 16 15 13 12 11 14 13 14 17 20 20 21 24 27
21 21 21 21 22 22 22 23 23 24 24 25 26 27 28 29 30 32 33 34 35 36 37 37 38 38 38 38 38 37 37 37 38 37 37 37 37 36 35 34 33 34 35 36 37 38 39 40 41 43 44 45 45 44 43 42 42 41 40 39 38 36 35 35 34 32 31 29 27 26 25 22 18 17 16 15 14 13 12 14 14 15 16 18 18 20 23 28
22 22 22 23 23 23 24 24 25 25 26 27 28 29 30 31 32 34 35 36 37 37 38 39 39 39 40 39 39 39 39 40 40 39 40 40 39 38 38 36 36 35 36 36 37 37 37 38 40 43 45 45 45 45 44 44 44 43 42 40 39 38 37 36 35 34 32 29 28 27 26 23 20 17 16 15 15 14 13 13 15 17 16 16 17 20 24 28
23 23 24 24 24 25 25 26 26 27 27 28 29 30 31 33 34 35 36 37 38 38 38 39 39 39 39 39 39 38 39 40 40 41 41 41 41 40 40 39 38 38 38 37 38 37 36 38 40 42 43 44 45 46 46 46 46 45 43 42 40 39 39 38 37 35 33 31 29 28 26 24 21 18 17 17 16 14 13 13 14 16 17 16 17 19 24 29
25 25 25 26 26 26 27 27 28 28 29 29 30 31 32 34 35 37 37 38 38 38 38 38 38 38 38 37 37 37 37 38 39 40 41 42 42 41 41 41 41 40 40 39 38 37 37 39 39 40 42 44 45 47 47 47 47 47 46 44 43 41 40 39 38 36 34 32 31 29 28 26 22 19 19 18 16 14 13 13 13 15 15 15 15 19 24 29
26 26 27 27 27 27 28 28 29 29 30 31 31 32 33 34 36 37 38 38 37 37 36 36 36 36 36 35 35 35 35 36 37 38 39 40 41 42 42 42 42 42 42 41 40 39 39 40 38 39 41 43 45 47 47 47 47 48 48 46 44 43 41 40 39 37 35 33 32 30 29 27 24 20 19 19 16 14 13 14 15 14 13 14 16 18 24 28
28 28 28 28 28 29 29 29 30 30 31 31 32 33 34 35 36 37 37 37 36 35 35 34 34 34 34 33 33 33 34 34 35 36 37 38 39 40 41 42 42 42 43 42 41 40 41 40 38 39 41 42 44 46 46 47 47 48 49 47 46 45 42 41 40 38 37 35 33 32 30 28 26 21 20 19 16 15 12 14 16 14 15 18 17 17 23 27
29 29 29 29 30 30 30 30 30 31 31 32 33 33 34 36 37 37 37 36 35 34 33 33 32 32 32 32 32 32 32 32 33 34 35 36 37 38 40 41 42 42 43 43 42 42 42 41 40 41 41 40 42 44 45 47 47 47 48 49 47 46 44 42 41 39 37 36 34 33 31 29 27 24 21 19 18 16 12 14 17 16 18 18 14 16 23 25
30 31 31 31 31 31 31 31 31 31 32 32 33 34 35 36 37 37 36 35 34 34 33 32 31 31 31 31 31 30 30 30 31 32 34 34 36 37 38 39 40 42 42 43 43 43 43 43 43 43 41 40 42 43 45 46 46 46 47 49 48 46 46 44 43 41 39 37 36 35 32 30 28 26 23 18 19 19 16 17 18 17 18 14 12 17 21 22
32 32 32 32 32 32 32 32 32 32 32 32 33 34 35 36 37 37 36 35 34 33 32 31 30 30 30 30 29 29 28 29 29 30 32 32 34 35 36 38 39 40 41 42 43 44 44 44 44 45 42 40 42 43 44 44 45 44 45 48 48 47 47 45 44 42 41 39 37 36 33 30 28 26 25 20 20 23 21 21 19 17 17 14 15 17 18 21
32 33 33 33 33 33 33 32 32 32 32 33 34 35 36 37 37 37 36 35 34 33 32 31 30 29 29 29 29 28 27 27 28 28 29 30 31 33 35 36 38 40 41 42 43 44 45 45 45 46 44 42 43 44 44 43 43 43 43 46 47 47 47 46 46 44 43 41 39 38 35 32 28 26 25 22 23 26 24 23 21 19 19 18 18 15 16 20
33 33 33 33 33 33 33 33 33 33 33 33 34 35 36 37 37 37 36 35 34 34 32 32 30 28 28 28 28 27 26 25 26 26 27 27 28 30 32 34 36 38 40 41 42 44 45 45 46 47 46 45 45 45 44 41 41 42 42 44 46 47 47 47 47 46 44 42 41 39 38 35 31 27 24 21 26 30 26 24 23 22 22 22 19 15 16 19
33 33 34 34 34 33 33 33 33 34 34 34 35 36 37 37 37 37 36 35 34 34 33 31 30 28 27 27 26 26 25 24 24 24 24 24 25 26 28 31 33 36 39 41 42 44 45 45 46 47 47 47 47 45 43 41 42 42 41 42 45 46 47 48 48 47 46 44 42 41 40 38 35 32 27 25 29 32 29 27 25 24 24 24 21 17 16 18
33 33 34 34 34 34 33 34 34 34 35 35 35 36 37 37 37 37 36 34 34 33 33 32 30 28 27 26 25 25 24 24 24 23 23 22 22 23 24 27 30 33 37 40 42 43 44 45 46 47 48 47 47 45 42 41 42 42 41 42 44 45 46 47 48 48 47 45 44 42 41 39 37 35 34 33 34 33 31 29 27 25 26 26 23 19 17 17
33 33 34 34 34 34 34 34 34 35 35 35 36 36 37 37 37 37 36 34 34 33 32 31 30 28 26 25 24 24 23 23 23 23 22 21 20 20 21 23 27 30 33 37 40 42 43 44 45 47 47 47 47 45 42 42 42 42 41 42 44 45 45 46 48 48 47 46 45 44 42 40 39 38 37 36 36 36 33 31 29 28 28 27 24 20 17 17
34 34 34 34 34 34 34 34 35 35 35 36 36 37 37 37 37 36 36 34 34 32 31 30 29 28 26 24 24 23 23 23 23 23 22 22 20 20 20 20 23 26 30 33 36 39 41 43 45 46 47 47 47 46 44 43 42 42 42 43 45 45 45 46 47 48 47 47 46 45 44 42 41 40 38 37 37 37 36 34 32 31 30 27 22 18 17 17
34 34 34 34 35 35 35 35 35 36 36 36 36 37 37 37 37 36 36 34 33 32 31 30 28 26 25 24 23 23 22 22 23 23 23 23 22 21 20 19 21 23 26 29 32 36 39 42 45 46 47 47 47 46 45 44 42 42 44 45 45 45 45 45 46 46 47 47 47 46 45 44 42 40 39 38 36 37 38 35 33 33 31 26 21 18 17 18
35 35 35 35 35 36 36 36 36 37 37 36 36 37 37 37 37 37 36 35 33 31 30 29 27 25 23 23 23 22 22 22 22 23 24 23 23 22 21 21 21 22 22 25 28 32 36 39 43 45 46 46 46 46 46 45 45 45 46 47 47 45 44 44 45 45 46 46 46 47 46 44 42 40 40 39 37 37 37 34 34 34 31 25 21 19 18 18
36 36 36 36 36 37 37 37 37 37 37 37 37 37 37 37 37 37 37 36 34 30 29 28 26 24 22 21 21 21 22 21 21 22 23 24 24 24 23 23 23 23 23 23 24 28 32 36 40 43 45 45 46 46 47 47 48 48 49 48 47 46 44 43 44 44 45 45 46 46 46 45 44 41 41 40 38 37 37 35 35 34 30 26 23 20 19 18
37 37 37 37 37 38 38 38 38 38 38 37 37 37 37 37 37 37 37 37 35 30 27 26 25 23 21 20 19 19 20 19 19 20 21 22 23 24 24 25 25 26 25 22 22 24 28 33 37 40 43 45 46 47 48 49 50 50 49 47 47 46 44 43 43 44 44 44 45 46 46 45 46 45 43 41 39 37 36 34 34 33 30 27 24 21 20 18
38 38 38 38 38 39 39 39 39 39 38 38 37 37 37 36 36 36 36 38 37 32 27 25 23 22 20 19 18 17 17 16 16 17 19 20 22 23 24 26 27 27 27 25 23 24 26 30 34 38 41 44 47 48 49 50 50 49 47 47 47 46 45 44 44 44 44 44 45 46 46 46 47 47 45 42 40 38 36 34 32 31 30 27 24 21 20 17
39 39 39 39 39 39 39 40 40 39 38 38 38 37 37 36 35 34 34 36 37 35 30 26 23 21 19 19 18 17 16 15 15 17 18 20 22 23 25 26 27 28 28 28 26 25 25 29 32 35 38 42 46 47 48 49 49 48 47 47 47 46 46 45 44 44 43 44 45 45 46 45 46 48 46 43 40 38 37 35 33 31 30 27 23 20 19 18
39 40 40 40 40 40 40 40 40 40 39 39 38 38 37 36 35 34 33 33 35 35 32 29 25 22 20 20 20 18 18 18 17 18 20 22 24 25 25 27 27 28 29 29 28 27 27 29 31 31 34 39 42 45 48 50 49 48 47 47 47 47 48 47 46 45 44 45 45 46 46 45 45 47 47 44 41 39 38 37 34 32 30 26 20 19 19 17
40 40 40 40 40 40 40 40 41 40 40 39 39 39 38 36 35 34 32 32 33 33 31 29 26 23 21 21 22 21 20 20 20 20 22 23 24 25 26 27 27 28 29 30 29 28 29 31 31 30 32 36 39 43 47 49 50 49 48 48 48 49 49 49 48 47 46 46 47 48 47 45 44 46 47 44 41 40 38 37 34 32 30 24 20 20 19 17
40 41 41 41 41 41 41 41 41 41 41 40 40 39 38 37 35 34 32 31 32 32 30 28 26 23 21 21 22 22 21 20 20 22 23 24 24 24 24 25 26 27 28 29 30 30 30 31 32 31 32 34 37 40 45 48 49 50 49 48 49 50 50 50 50 49 47 48 49 50 48 46 44 44 45 44 42 40 38 37 35 32 29 25 22 21 20 19
41 41 41 42 42 42 42 42 42 42 41 41 41 40 39 38 36 34 32 31 30 31 29 28 27 24 21 21 23 23 23 21 21 22 22 22 23 22 22 23 24 25 25 27 29 29 30 31 32 33 34 35 36 39 43 45 48 50 51 50 50 51 51 51 51 52 51 50 51 52 50 47 44 43 44 44 43 40 38 38 36 32 29 26 23 22 22 22
42 42 42 43 43 42 42 42 43 42 42 42 41 40 40 39 37 35 33 31 30 30 28 25 27 25 21 21 22 23 22 21 21 22 21 21 21 21 22 22 23 23 24 26 27 28 29 31 32 33 35 37 38 40 42 43 46 50 52 52 52 52 52 52 53 55 54 52 52 54 52 48 46 43 43 45 43 40 38 38 36 33 30 28 25 22 23 23
42 43 43 43 44 43 43 43 43 43 42 42 41 41 40 39 38 35 33 32 30 30 28 24 24 24 22 22 22 22 23 23 22 22 22 22 21 22 22 23 24 24 25 26 28 29 29 30 32 33 35 38 40 42 42 42 44 48 52 53 54 54 53 54 56 57 57 54 54 56 55 51 49 46 43 44 44 40 39 39 37 34 32 29 26 24 24 24
43 44 44 44 44 44 44 44 43 43 43 43 42 41 40 39 38 36 34 33 31 29 28 25 23 22 23 23 22 22 22 23 22 21 23 23 22 23 23 24 25 25 26 28 30 30 30 31 33 35 37 39 40 42 43 42 44 47 50 52 54 55 55 56 58 58 59 57 55 57 58 54 52 51 47 45 45 42 41 41 38 36 33 31 28 26 25 24
44 44 44 45 45 45 44 44 44 44 43 43 42 40 40 39 37 36 34 32 31 29 27 25 23 22 23 23 22 21 21 22 22 22 23 23 23 23 24 25 26 26 27 29 30 31 31 32 35 37 38 40 41 42 43 44 46 46 48 51 55 56 56 57 59 60 61 59 56 58 60 57 55 54 52 49 47 44 43 42 39 37 35 33 31 29 26 24
44 44 44 44 45 44 44 44 43 43 43 42 41 40 39 39 36 35 35 32 31 29 26 24 23 23 24 22 21 22 20 21 23 23 23 23 23 23 24 25 26 26 26 27 29 30 32 34 36 37 38 39 42 44 45 47 48 47 49 51 54 56 57 58 60 62 62 61 59 59 61 60 58 57 56 53 51 48 45 42 40 40 38 36 34 32 29 26
42 43 43 42 43 42 42 42 41 41 41 41 40 38 38 38 35 33 34 32 32 30 26 23 22 23 23 20 20 23 21 21 24 23 23 23 22 22 23 24 24 24 25 26 28 31 32 33 35 36 37 40 44 46 47 48 48 48 50 51 52 55 57 58 61 63 63 62 61 60 62 63 61 58 57 57 55 52 49 44 42 41 40 39 37 35 32 28
41 42 42 41 41 41 40 40 40 40 40 38 38 37 37 37 34 32 32 31 31 31 27 24 23 23 22 19 19 22 23 23 24 24 23 22 23 22 22 23 23 23 24 25 27 30 31 32 33 35 38 41 45 46 47 49 49 50 51 50 50 53 56 59 61 63 64 64 64 63 63 65 64 60 58 58 57 55 52 48 45 43 42 41 40 37 33 29
40 42 43 42 42 42 41 40 40 39 38 37 36 35 35 35 33 31 30 30 30 30 28 26 24 23 21 19 19 21 24 24 23 24 24 23 23 22 21 22 22 22 23 25 27 29 30 30 30 34 38 41 42 44 46 49 50 51 52 51 51 52 55 59 62 63 64 65 67 66 65 67 67 63 59 58 57 55 53 51 49 46 44 43 42 40 35 30
35 38 39 39 40 41 41 42 42 41 39 37 35 34 34 34 32 30 28 28 29 29 28 27 25 23 21 20 21 22 23 24 23 24 25 24 23 22 21 22 21 21 22 24 27 28 28 29 30 33 37 38 39 41 45 49 52 52 52 52 53 54 55 59 62 64 65 66 68 68 66 67 69 65 60 58 56 54 52 53 52 49 47 45 44 41 36 31
30 33 34 34 33 35 37 38 41 42 41 38 35 34 34 33 32 30 27 27 28 27 28 28 25 23 21 21 22 22 22 23 23 23 25 25 24 22 22 22 20 20 20 23 27 27 26 29 30 32 36 37 38 39 43 48 51 52 52 52 55 56 56 58 63 66 66 67 68 68 66 66 68 67 62 58 56 54 52 54 55 54 51 48 44 41 36 32
28 30 32 31 30 30 32 34 36 39 41 40 36 34 34 33 32 30 27 26 26 25 27 28 25 23 23 22 23 23 23 23 22 22 24 25 25 24 23 22 20 20 20 22 25 26 26 28 29 30 34 37 37 38 41 45 47 49 51 52 54 56 57 58 62 66 68 68 68 69 68 67 68 68 65 61 59 57 55 56 57 57 55 51 46 41 37 34
28 29 32 32 30 31 32 33 35 37 38 39 38 35 34 33 31 30 27 25 25 25 27 27 24 23 23 23 23 23 23 23 22 23 23 23 24 25 24 22 21 21 22 22 23 26 26 26 27 29 33 35 36 36 39 42 42 45 49 51 53 56 58 58 60 65 69 70 69 70 70 69 69 68 67 65 64 62 60 58 57 57 58 56 50 44 39 35
30 30 31 32 33 34 34 34 35 36 36 36 36 35 34 33 31 30 28 24 23 25 26 26 24 23 23 23 23 23 23 23 22 22 21 21 23 24 24 23 22 23 22 21 22 25 25 24 25 28 31 33 33 33 36 38 39 42 45 48 52 55 58 59 60 64 69 71 71 71 71 71 70 69 68 67 66 66 65 61 56 56 58 57 53 48 43 37
31 31 31 33 35 36 35 35 35 35 35 34 34 35 34 33 31 29 27 24 23 25 26 25 24 22 21 23 24 23 22 22 21 21 20 20 21 21 23 22 22 23 21 20 22 24 24 23 24 27 29 30 31 31 32 34 36 39 42 46 50 54 58 60 60 63 68 71 71 71 72 72 72 71 70 68 67 66 67 63 56 56 58 56 52 48 43 37
31 31 31 35 37 36 35 35 35 35 33 32 33 33 32 32 31 28 27 25 23 24 25 25 24 21 21 23 24 23 21 20 20 19 18 18 17 17 20 20 20 21 21 20 22 23 22 22 23 26 27 28 28 28 28 30 34 37 40 44 48 52 56 60 61 62 66 70 71 71 73 74 75 74 72 70 68 66 66 64 57 55 56 56 51 46 41 36
32 31 32 37 38 35 34 35 36 35 32 31 32 31 31 32 30 27 27 26 24 23 25 25 24 22 21 23 23 21 20 18 17 15 14 15 13 12 15 18 18 20 21 20 20 21 21 22 23 25 26 26 26 25 24 26 30 34 38 43 46 50 54 59 61 62 64 68 71 72 74 77 78 77 75 74 71 66 65 63 59 55 54 54 52 47 44 39
32 32 35 38 37 34 34 35 36 35 31 31 30 30 32 32 29 27 26 26 25 24 24 24 24 21 21 21 21 19 18 16 13 11 10 11 10 10 13 16 17 19 20 19 18 19 20 20 22 24 25 26 24 22 21 22 25 30 36 41 45 48 52 57 60 61 62 66 70 73 75 78 80 79 77 77 75 69 64 62 60 55 52 52 52 49 48 45
34 34 36 38 36 35 34 36 36 35 32 31 30 30 32 32 29 27 25 25 26 26 25 24 22 21 20 20 19 18 15 13 11 9 8 8 9 11 13 15 16 17 17 17 17 18 19 20 21 22 24 25 23 20 19 19 21 25 31 38 44 47 50 55 59 60 62 65 69 73 76 78 80 80 79 79 78 73 66 61 59 56 52 51 51 50 50 49
36 35 36 37 37 36 35 36 36 35 32 31 31 29 31 32 29 27 25 25 26 26 26 24 22 20 20 20 19 17 14 12 10 7 6 7 10 12 14 15 17 17 16 17 16 16 18 19 20 21 23 24 22 19 18 17 18 21 27 33 41 46 49 52 54 57 61 64 68 73 76 77 79 80 80 80 79 76 69 63 60 58 54 51 51 50 52 51
38 37 37 37 37 37 37 36 36 35 33 31 31 29 30 32 30 26 24 25 26 26 25 24 22 22 21 20 19 16 13 11 10 7 7 8 11 13 15 15 16 17 17 17 17 16 16 18 19 20 22 22 19 17 17 16 17 19 22 28 35 43 48 51 51 53 59 64 67 72 76 77 79 80 79 78 78 77 73 66 62 61 57 53 52 51 53 53
41 39 38 37 38 39 38 36 35 35 33 31 30 29 29 31 31 27 24 24 25 25 26 25 23 23 22 20 19 16 13 11 11 10 10 11 12 14 16 15 16 17 18 17 17 17 16 17 18 18 20 21 17 15 16 16 17 18 20 24 30 38 45 50 51 53 59 64 66 71 75 77 78 79 79 77 76 76 75 70 66 64 60 56 54 53 53 55
Wind_Direction
251 253 256 259 262 264 267 269 271 272 273 273 274 274 274 274 273 271 269 268 267 265 264 262 261 261 260 261 261 260 258 255 251 249 247 245 244 243 242 241 241 240 238 236 235 234 233 234 233 232 232 233 235 234 234 232 232 233 234 235 235 234 233 237 239 239 240 235 236 245 251 260 268 275 284 292 302 319 333 348 355 355 358 356 349 355 360 359
251 253 256 260 263 266 269 271 273 274 274 275 275 276 276 276 276 275 274 272 270 268 266 265 263 261 259 259 259 259 259 258 257 254 251 247 245 243 242 241 240 240 238 236 235 234 233 233 233 232 231 231 233 234 234 234 232 232 233 234 234 234 233 235 235 236 239 236 237 241 252 264 267 275 284 288 296 307 320 338 349 353 359 357 342 345 354 357
252 254 258 261 264 267 269 271 272 273 273 275 275 276 276 276 276 276 276 275 274 272 270 267 266 264 262 260 258 258 258 258 259 258 255 251 247 245 244 242 241 239 238 237 235 234 233 232 232 232 231 230 232 233 234 234 234 233 233 233 233 234 232 234 234 233 235 237 241 250 258 264 264 274 281 284 293 301 310 327 345 353 359 359 339 335 349 355
253 255 258 261 264 267 270 272 274 274 275 276 276 277 278 278 278 277 277 276 275 273 271 270 268 266 264 263 261 259 258 258 258 258 257 254 251 248 246 244 243 240 238 237 235 234 233 232 231 231 230 230 230 232 233 234 234 233 233 232 232 233 232 234 235 235 237 241 246 253 259 262 262 271 278 282 291 298 307 322 341 350 354 360 342 329 343 353
256 258 261 264 266 269 271 273 275 276 277 277 278 279 279 280 280 279 279 278 276 275 273 271 269 267 266 265 263 262 260 259 258 257 256 255 253 250 248 246 245 243 240 238 235 234 232 232 231 230 229 229 229 230 231 233 234 233 233 232 232 233 233 234 236 238 240 243 246 249 253 258 260 267 275 280 288 293 306 319 334 345 346 354 345 327 337 350
259 262 264 267 268 271 272 274 275 277 278 279 280 280 281 281 281 281 280 279 278 277 275 274 272 270 268 267 266 265 264 262 259 257 256 256 255 253 250 247 246 246 243 241 237 235 232 231 230 230 229 228 227 228 229 231 232 233 232 232 232 233 234 235 237 238 240 243 245 246 247 251 257 263 269 275 282 288 307 316 324 340 337 344 341 323 333 347
261 264 266 269 271 273 275 276 277 278 279 280 281 281 282 282 282 281 281 280 279 279 278 277 276 274 272 270 268 267 266 263 261 260 258 257 256 255 253 249 247 247 245 243 240 237 233 231 230 229 228 227 226 226 228 230 231 232 232 232 233 233 234 235 237 238 241 243 245 246 246 249 254 260 265 268 274 286 306 312 319 331 326 337 339 320 329 344
263 265 268 270 272 274 276 278 278 280 280 281 282 283 283 283 283 283 282 282 282 281 281 281 280 278 276 274 271 269 267 265 263 262 260 258 256 255 254 252 249 247 246 245 242 239 236 233 230 228 227 227 226 225 226 228 230 231 231 232 232 233 233 234 236 238 239 242 244 245 245 247 251 257 262 261 271 289 303 315 326 328 324 338 336 320 329 340
265 267 269 271 273 275 276 278 279 280 281 282 284 284 285 285 285 285 285 284 285 285 285 284 283 281 279 277 274 271 268 266 263 261 259 258 256 255 253 252 250 248 246 245 244 241 238 236 232 229 227 226 226 225 225 226 229 230 230 230 231 231 232 233 235 236 238 240 243 243 242 244 247 252 256 258 273 288 303 321 328 323 322 332 331 321 328 334
266 268 270 272 273 275 277 278 280 281 283 284 285 287 287 288 288 288 287 287 288 288 288 287 285 284 282 279 276 273 270 266 263 261 259 257 256 254 253 251 250 248 247 245 245 243 240 238 235 232 229 226 226 224 224 224 227 230 229 228 229 230 230 232 234 235 236 237 240 242 241 242 243 249 253 257 272 283 298 311 310 313 316 324 329 321 324 327
266 267 269 271 273 276 277 279 281 283 284 286 287 289 290 291 290 290 290 290 291 291 291 289 288 286 283 281 278 275 271 268 265 261 258 256 255 253 252 250 249 248 246 245 244 243 242 240 237 234 230 227 226 225 223 224 226 229 230 228 228 229 229 230 232 234 235 236 238 240 241 241 240 244 249 255 268 275 287 297 295 302 305 313 322 316 318 321
265 267 269 271 273 276 278 280 282 284 286 288 290 291 292 293 293 292 293 293 294 294 293 292 290 288 285 282 279 275 272 268 266 262 259 256 253 252 250 249 248 247 246 244 243 241 242 241 238 236 233 229 227 225 223 223 225 228 230 229 228 228 229 230 231 232 233 234 236 237 240 240 238 239 244 253 266 269 281 297 295 292 292 302 311 310 313 316
265 268 270 272 275 277 279 281 283 285 288 289 291 293 294 295 295 295 295 296 297 297 296 294 292 290 287 284 280 277 274 270 266 263 259 256 254 251 249 247 246 245 244 243 242 240 240 241 239 237 235 232 229 227 224 223 224 227 229 230 229 228 228 229 230 230 231 232 233 235 237 238 238 237 240 253 265 261 267 286 286 285 290 297 304 306 307 311
267 270 272 274 277 279 281 283 286 288 289 292 294 295 296 296 297 297 298 300 300 300 298 296 295 293 290 286 282 279 275 271 267 263 260 257 254 251 248 246 245 243 242 242 241 240 239 238 238 237 235 233 232 228 225 223 223 226 229 230 229 228 228 227 228 229 229 230 231 233 234 235 237 234 237 249 255 251 252 264 274 281 286 292 298 299 303 312
270 272 274 277 279 281 284 286 288 289 291 293 296 297 298 298 298 299 301 303 303 302 301 299 297 295 293 288 284 280 277 273 268 264 261 257 254 251 248 246 244 242 241 240 239 238 238 237 237 237 234 232 233 230 226 223 222 225 228 230 229 228 228 227 227 228 228 228 228 231 232 232 232 231 235 240 240 244 247 252 265 278 277 281 287 292 304 316
272 274 276 278 281 283 285 287 289 291 293 295 297 299 299 300 300 302 303 305 305 304 304 302 300 298 294 290 286 282 277 273 269 266 262 259 255 252 249 246 243 241 239 238 237 237 236 235 235 236 234 231 232 230 226 223 222 224 227 229 229 228 228 227 227 227 226 226 226 228 229 228 227 228 234 235 231 234 241 247 256 266 269 271 277 291 310 318
273 276 278 280 282 284 286 288 290 292 294 296 298 299 300 301 301 303 305 306 307 307 306 304 302 299 295 290 286 282 277 272 268 266 263 260 256 253 250 246 244 241 239 237 235 235 235 234 234 234 234 231 231 230 226 223 223 223 225 228 229 228 227 227 227 227 226 226 224 225 226 225 225 226 228 229 230 230 234 246 254 259 264 267 272 288 308 316
274 277 279 281 283 285 286 288 290 292 294 296 298 300 301 301 302 304 306 307 308 308 307 306 304 300 295 289 285 281 276 271 265 263 262 260 257 254 250 247 244 242 239 237 235 234 233 233 233 233 233 232 231 230 226 224 224 223 224 226 228 228 227 226 226 226 227 226 225 224 224 224 224 222 219 220 230 233 232 244 253 257 261 263 268 280 297 310
275 277 280 281 283 285 287 289 291 293 295 297 298 300 301 302 303 304 306 308 309 309 309 307 305 301 296 290 285 279 274 269 263 258 257 258 258 255 251 248 245 243 240 237 235 234 233 232 233 233 233 233 232 231 228 225 225 223 223 224 226 227 227 227 226 226 226 226 226 225 224 224 222 221 220 221 230 236 235 241 248 252 256 260 266 275 287 301
276 278 280 282 284 285 287 289 291 293 295 297 299 300 301 302 304 305 307 308 309 309 309 307 305 301 296 291 284 278 272 266 260 254 252 253 255 255 253 250 247 244 242 239 236 234 233 233 233 233 233 232 232 231 228 226 226 225 224 224 225 226 226 226 226 225 224 225 225 225 225 224 223 222 223 225 229 234 235 239 243 247 252 258 265 275 283 293
275 278 280 282 284 285 287 290 291 293 295 297 299 300 301 302 304 306 307 309 310 310 309 307 305 301 297 291 284 277 271 264 258 252 248 249 251 252 252 251 250 247 243 241 238 236 234 233 232 233 232 232 231 231 229 227 225 225 226 225 224 224 225 225 225 224 223 223 224 225 225 224 224 224 224 226 228 231 234 237 242 246 251 257 264 272 278 282
275 278 280 282 284 286 288 290 291 293 295 297 299 300 301 302 304 306 307 309 310 310 309 307 305 302 298 292 284 276 269 262 257 251 247 247 249 250 251 252 252 250 247 243 240 237 235 233 232 232 232 231 230 230 228 227 225 225 226 226 225 224 224 224 224 224 223 222 223 224 224 224 225 224 225 227 228 230 232 236 240 245 249 255 261 264 269 274
276 278 280 282 284 286 288 290 292 293 295 297 299 300 301 303 305 307 308 309 309 310 310 307 304 301 296 291 284 276 268 261 256 251 249 248 249 251 252 253 253 252 249 245 242 239 237 234 233 232 231 231 230 229 228 226 225 225 225 224 224 223 222 223 224 223 223 222 221 222 223 223 223 224 224 226 228 230 231 232 237 243 246 251 256 257 262 271
278 279 281 283 285 287 288 290 292 294 295 297 298 300 301 303 306 307 308 308 308 309 309 307 305 301 295 289 282 275 267 261 254 251 250 249 251 252 253 254 255 254 250 247 245 243 239 237 234 233 232 231 230 229 227 226 224 224 224 223 222 222 221 222 223 222 221 221 220 220 221 221 220 221 222 224 226 230 231 230 235 242 245 246 249 253 258 265
279 280 282 284 285 287 289 290 292 293 295 297 298 299 301 303 305 307 309 308 307 308 309 307 303 300 294 288 281 273 267 262 257 253 252 253 254 255 256 256 256 256 252 248 246 245 242 239 236 233 231 230 229 229 227 226 225 224 224 223 223 221 220 221 222 221 220 220 219 218 219 219 219 219 222 223 224 228 230 230 233 239 242 241 243 248 253 257
279 281 283 284 285 287 289 290 292 293 295 297 298 299 301 302 304 307 309 309 307 307 308 305 301 296 288 282 278 272 264 260 258 257 255 256 258 258 257 256 256 256 254 249 245 244 243 242 238 234 231 230 229 228 228 227 226 225 223 223 223 222 220 220 221 220 219 218 218 217 217 217 218 219 221 222 224 227 229 229 231 235 237 237 239 244 247 248
280 281 283 284 285 287 289 290 291 293 295 296 297 298 300 301 303 305 308 308 307 307 307 305 300 293 282 273 269 266 264 260 259 261 262 261 261 260 259 257 255 255 254 250 246 244 244 244 242 237 233 232 230 229 228 228 227 225 223 223 222 221 219 219 221 220 218 217 215 214 215 216 218 219 219 220 223 227 228 229 230 233 236 234 234 238 240 239
280 281 283 284 286 287 289 290 291 293 294 296 297 298 299 300 302 304 306 306 304 304 305 303 299 293 281 269 263 259 260 262 260 262 265 265 264 263 261 259 257 255 254 252 248 245 244 244 244 240 237 235 232 230 229 228 226 224 223 222 221 220 218 217 219 219 217 216 213 212 212 213 217 219 219 219 222 225 226 228 229 233 236 233 228 229 231 231
280 282 283 284 286 288 289 290 291 293 294 296 297 297 298 300 301 303 304 303 302 301 300 299 297 293 283 270 264 261 259 264 267 269 271 272 269 266 264 260 257 254 253 251 248 245 244 244 243 241 239 237 235 232 230 228 226 224 222 221 220 219 218 216 217 217 216 215 211 209 208 209 213 218 219 218 219 221 223 225 226 229 233 231 222 222 226 228
281 282 283 285 286 287 289 290 291 293 295 296 296 297 298 299 300 301 302 301 301 298 297 296 293 290 282 271 267 265 264 268 275 277 278 277 274 270 265 261 257 254 252 251 248 245 244 244 243 241 239 238 236 234 232 229 227 224 221 219 219 219 217 215 216 215 214 214 211 207 205 206 209 214 217 216 216 218 219 221 222 223 228 227 218 219 224 226
281 283 284 285 286 287 289 290 291 293 294 295 296 297 298 298 299 300 300 300 298 295 295 296 292 287 279 270 266 266 265 266 270 275 278 277 275 271 267 263 259 256 254 253 250 246 244 243 243 241 239 238 237 236 234 230 227 225 221 218 217 217 216 215 215 215 213 212 210 206 203 204 205 209 214 214 213 215 214 217 220 220 222 221 215 217 220 218
282 283 284 286 287 288 289 290 291 293 294 294 295 296 297 298 298 298 299 298 296 293 293 291 290 287 279 271 269 270 275 278 281 285 285 279 275 272 269 266 263 260 257 255 252 249 247 245 244 242 240 239 237 235 234 231 227 225 222 219 216 215 215 214 214 215 214 211 209 206 202 202 201 201 209 213 212 213 213 214 216 215 217 214 210 213 213 211
283 284 285 286 287 288 289 290 291 292 293 294 294 295 296 296 297 298 298 297 295 294 291 287 285 284 275 269 269 273 282 286 288 289 285 280 277 274 271 268 264 261 258 256 253 250 248 247 245 243 241 240 238 236 235 232 229 226 223 220 218 215 213 213 213 214 214 210 208 206 201 199 198 195 201 210 212 212 211 210 210 210 211 209 204 206 208 209
283 284 285 285 286 287 288 289 290 291 292 293 293 294 295 295 296 297 297 297 295 294 292 288 284 278 269 261 260 266 277 284 287 288 284 281 278 275 272 269 265 262 259 257 254 252 250 248 246 244 242 240 239 238 237 234 231 228 224 221 219 216 212 212 213 213 213 211 208 206 202 200 198 194 196 206 210 209 209 208 207 206 206 206 203 201 204 208
283 284 284 285 286 287 288 289 290 290 291 291 292 293 293 293 294 296 295 295 294 292 291 289 286 278 268 262 260 263 273 284 288 288 286 284 281 279 275 271 267 264 261 260 258 255 252 249 248 246 245 243 241 239 238 236 232 229 226 223 220 217 213 211 212 212 212 211 208 206 204 201 201 198 196 203 207 207 207 206 205 203 203 206 204 200 201 204
284 284 284 285 286 286 287 288 289 290 290 290 291 291 291 291 293 294 294 294 292 289 287 287 285 276 268 267 270 271 278 288 290 289 288 286 283 280 276 272 269 267 264 262 260 256 252 250 248 247 247 248 245 241 237 236 233 230 228 224 220 218 214 212 212 212 211 211 208 206 204 202 202 201 199 201 206 206 205 204 202 201 202 205 205 200 197 200
285 285 285 285 286 287 288 288 289 289 289 289 290 290 290 290 291 292 292 293 292 288 285 284 281 273 267 267 274 279 285 291 292 291 289 286 282 277 272 270 269 267 264 261 260 257 253 251 250 248 247 247 247 244 241 237 234 232 230 225 221 219 216 212 212 212 211 210 209 206 204 203 202 201 199 201 204 206 204 202 200 202 202 204 205 202 198 199
286 286 286 286 287 287 288 289 289 289 289 289 290 290 289 289 289 290 291 291 290 289 287 284 280 274 267 266 274 283 289 292 293 292 289 285 281 276 271 268 265 264 263 261 262 261 257 254 254 251 247 245 246 247 246 243 237 233 232 229 223 220 218 214 213 212 210 209 209 207 204 204 204 202 200 201 204 205 205 201 199 202 203 202 204 205 203 201
287 286 285 285 285 285 286 286 287 287 288 289 289 289 289 288 288 288 288 288 287 286 286 284 280 274 269 269 275 283 290 294 294 292 288 284 280 277 274 269 265 262 262 262 263 263 263 262 259 256 251 247 246 246 247 246 242 236 232 230 226 221 218 215 213 213 211 209 209 208 205 204 205 203 200 201 203 204 205 201 198 201 204 204 206 207 205 201
292 290 289 289 288 286 285 283 283 283 284 286 287 288 288 288 288 287 286 285 284 284 284 283 280 275 272 275 279 285 291 294 293 291 288 285 281 279 277 273 269 264 265 267 265 263 265 266 262 260 257 252 248 246 246 246 244 239 233 229 227 223 218 214 212 212 212 211 210 208 205 204 205 204 200 199 200 201 203 200 197 199 204 206 208 207 205 202
300 297 297 298 296 293 290 286 283 280 279 280 283 284 285 286 287 286 284 281 279 280 281 281 279 275 274 276 282 289 293 293 292 290 288 286 285 283 279 278 276 271 270 274 272 268 269 268 265 263 262 258 252 248 247 245 243 241 235 229 227 225 220 215 211 210 210 210 211 209 206 205 206 205 202 199 198 200 201 199 198 200 202 204 205 205 204 203
305 302 302 305 305 300 296 292 287 282 277 276 277 280 282 283 284 285 283 279 277 277 277 277 277 274 273 276 284 291 294 291 290 288 285 285 285 284 282 282 282 280 276 277 279 277 275 273 271 268 265 262 257 253 250 246 243 242 238 232 228 225 222 217 212 210 209 208 208 209 206 205 206 206 203 200 199 200 201 200 201 203 202 202 204 203 203 204
306 305 305 308 306 302 299 296 293 290 284 277 273 275 278 279 281 283 281 277 275 274 274 275 274 271 272 278 286 292 292 290 288 286 284 282 281 281 284 284 284 284 282 281 283 281 278 277 276 271 266 263 261 257 254 250 244 241 238 233 228 225 223 219 213 211 210 207 206 207 206 204 205 206 204 202 201 202 203 203 204 206 205 205 208 207 205 205
304 305 306 305 301 301 303 302 300 298 294 284 273 269 273 276 278 280 279 277 273 270 271 272 268 266 270 280 288 291 291 290 289 287 284 280 278 280 284 285 286 285 284 284 284 283 282 280 277 273 269 267 265 260 256 252 246 240 236 232 228 224 222 220 215 211 210 207 205 205 204 204 205 206 204 202 203 204 205 205 206 207 207 207 210 212 209 208
303 304 305 300 297 302 308 308 305 301 297 288 274 264 267 273 275 277 278 276 271 269 271 270 266 265 272 282 288 289 290 291 289 286 284 281 279 281 283 287 289 288 287 288 288 287 287 285 281 278 275 274 273 267 258 251 245 239 234 230 226 223 220 218 215 211 210 208 205 203 203 203 204 206 204 202 202 205 206 206 206 207 208 208 210 213 213 212
304 304 301 294 295 305 310 306 305 303 299 291 276 262 262 268 271 274 275 272 267 267 269 269 266 268 275 281 285 288 289 289 288 288 286 284 283 285 287 289 291 290 290 291 292 293 293 290 286 284 282 283 282 275 262 252 243 236 231 228 225 222 219 217 215 211 209 208 205 203 202 202 203 205 204 201 201 203 206 207 205 206 208 209 209 210 210 209
306 304 296 292 297 306 306 302 303 305 303 297 282 264 258 263 267 269 271 269 266 264 264 262 260 264 272 277 282 286 289 289 290 289 286 289 296 297 294 295 295 291 289 289 291 294 295 291 289 288 290 293 292 281 266 254 243 234 228 225 223 221 218 215 213 211 209 208 205 203 203 203 202 203 203 202 200 201 204 205 205 204 206 208 208 205 204 203
307 304 296 295 300 303 300 299 302 305 306 302 289 267 255 259 264 265 267 267 266 264 261 257 255 260 270 276 279 284 287 288 292 291 289 297 310 309 302 303 303 295 290 289 291 296 297 293 291 293 297 302 299 285 270 257 244 234 227 223 221 219 217 214 212 209 207 207 205 203 203 204 203 202 202 202 201 200 200 201 202 202 203 206 206 203 201 200
308 306 301 300 300 298 296 297 300 304 305 301 292 272 256 256 262 263 264 265 264 263 261 255 254 261 268 272 275 278 281 285 290 295 302 312 316 312 310 313 316 308 295 288 291 299 299 294 292 296 303 308 305 290 274 262 247 235 227 222 219 217 216 213 211 208 206 206 205 204 204 205 204 202 202 202 202 201 199 197 197 196 196 201 203 201 200 200
308 309 306 302 299 296 295 295 297 301 302 299 293 278 260 255 259 262 262 262 260 260 259 254 253 260 264 265 267 269 273 279 285 292 310 320 318 316 318 321 325 323 307 290 291 300 301 296 295 299 307 314 309 292 278 268 253 237 227 221 218 216 214 212 210 207 205 205 205 204 204 205 204 203 203 202 202 202 200 196 192 190 190 196 200 200 199 197
307 309 307 303 298 295 294 294 294 296 298 298 295 284 265 254 256 260 261 260 257 255 253 251 251 258 260 258 259 261 262 270 278 284 298 311 314 315 321 324 325 327 319 300 294 301 304 301 299 301 311 319 312 291 280 271 258 244 231 223 218 215 212 210 208 206 204 204 205 205 204 204 204 204 203 203 203 202 201 197 192 189 188 191 196 198 198 197
307 307 306 302 299 297 295 293 292 292 295 297 296 289 272 255 251 254 254 254 254 249 246 245 247 254 257 254 253 253 252 258 270 279 290 300 306 313 320 323 323 326 326 311 299 302 309 307 303 304 312 321 314 291 279 272 259 249 238 227 218 214 211 208 206 204 203 202 204 205 205 204 204 204 203 204 203 203 203 200 195 191 189 189 194 198 200 201
Height
10951 10951 10951 10951 10952 10952 10952 10952 10953 10953 10953 10953 10953 10953 10952 10952 10952 10952 10951 10951 10951 10951 10950 10950 10950 10949 10949 10949 10948 10948 10947 10948 10949 10950 10951 10951 10951 10952 10954 10955 10957 10958 10961 10962 10964 10965 10967 10969 10971 10973 10975 10975 10975 10977 10978 10980 10981 10982 10983 10984 10985 10986 10987 10987 10987 10988 10988 10990 10990 10991 10991 10991 10991 10991 10990 10989 10987 10987 10985 10984 10983 10982 10980 10978 10977 10977 10976 10973
10949 10950 10950 10950 10950 10951 10951 10951 10951 10951 10951 10951 10951 10951 10950 10950 10950 10949 10949 10949 10948 10948 10947 10947 10947 10947 10946 10946 10946 10945 10944 10945 10947 10947 10947 10947 10948 10949 10950 10952 10953 10954 10956 10958 10960 10962 10964 10965 10967 10970 10971 10972 10973 10974 10975 10976 10978 10980 10981 10982 10983 10984 10985 10984 10985 10986 10987 10988 10989 10990 10990 10990 10990 10990 10989 10988 10988 10987 10986 10985 10984 10982 10980 10978 10976 10976 10975 10973
10948 10948 10949 10949 10949 10949 10949 10949 10949 10949 10949 10949 10949 10948 10948 10948 10947 10947 10946 10946 10945 10945 10944 10944 10944 10943 10943 10943 10942 10942 10942 10943 10944 10944 10943 10943 10944 10946 10947 10948 10949 10950 10951 10953 10955 10957 10959 10961 10963 10966 10968 10970 10970 10971 10972 10973 10975 10977 10978 10979 10980 10981 10982 10982 10983 10984 10985 10987 10988 10989 10989 10989 10989 10989 10988 10987 10987 10987 10986 10985 10984 10983 10981 10979 10977 10976 10975 10974
10947 10947 10947 10947 10947 10947 10947 10947 10947 10947 10947 10947 10946 10946 10946 10945 10945 10944 10944 10943 10942 10942 10941 10941 10940 10940 10940 10939 10939 10938 10939 10941 10941 10940 10939 10939 10940 10942 10943 10944 10945 10945 10947 10949 10951 10952 10955 10957 10959 10962 10964 10966 10967 10968 10969 10970 10972 10974 10975 10976 10978 10978 10979 10980 10981 10982 10984 10985 10987 10987 10988 10988 10988 10988 10987 10986 10986 10986 10985 10984 10984 10983 10981 10980 10978 10976 10975 10973
10945 10945 10945 10945 10945 10945 10945 10945 10945 10945 10944 10944 10944 10944 10943 10942 10942 10941 10941 10940 10939 10938 10937 10937 10937 10937 10936 10936 10935 10935 10936 10938 10938 10936 10936 10935 10936 10938 10939 10940 10941 10942 10943 10944 10946 10948 10950 10952 10955 10957 10960 10962 10964 10965 10966 10967 10969 10970 10971 10973 10974 10975 10977 10979 10980 10980 10982 10983 10984 10986 10986 10987 10987 10986 10986 10985 10985 10985 10985 10983 10983 10982 10980 10979 10978 10976 10974 10973
10943 10943 10943 10943 10943 10943 10943 10943 10943 10942 10942 10942 10941 10941 10940 10940 10939 10938 10937 10936 10935 10934 10934 10933 10933 10933 10932 10932 10932 10932 10933 10934 10933 10932 10932 10932 10933 10934 10935 10936 10937 10938 10939 10940 10941 10943 10946 10948 10950 10953 10955 10958 10960 10961 10963 10964 10965 10966 10967 10969 10971 10973 10975 10976 10977 10978 10979 10981 10982 10983 10985 10985 10985 10985 10985 10985 10984 10984 10985 10983 10982 10981 10980 10979 10978 10976 10973 10972
10941 10941 10941 10941 10941 10941 10941 10940 10940 10940 10939 10939 10938 10938 10937 10937 10936 10935 10934 10933 10932 10931 10930 10929 10928 10928 10928 10927 10928 10928 10929 10928 10928 10928 10928 10928 10929 10930 10931 10932 10933 10934 10934 10935 10937 10939 10941 10944 10946 10947 10950 10952 10955 10958 10960 10961 10961 10962 10964 10966 10968 10971 10973 10974 10975 10976 10978 10979 10980 10981 10982 10983 10984 10984 10984 10984 10983 10983 10984 10983 10982 10981 10980 10979 10978 10976 10974 10972
10939 10939 10939 10939 10938 10938 10938 10938 10938 10937 10937 10936 10936 10935 10934 10933 10932 10931 10930 10929 10928 10927 10926 10925 10924 10923 10923 10922 10923 10923 10923 10923 10923 10923 10923 10923 10924 10925 10926 10928 10929 10930 10930 10931 10932 10935 10937 10940 10940 10942 10944 10948 10951 10954 10956 10957 10957 10959 10961 10964 10966 10968 10970 10971 10972 10974 10976 10977 10978 10979 10980 10981 10983 10983 10983 10983 10982 10982 10982 10982 10981 10980 10979 10978 10977 10976 10973 10972
10936 10936 10936 10936 10936 10936 10936 10935 10935 10934 10934 10933 10933 10932 10931 10930 10929 10928 10926 10925 10924 10923 10922 10921 10919 10918 10917 10917 10917 10917 10917 10917 10917 10917 10917 10918 10919 10920 10921 10922 10924 10925 10926 10927 10928 10931 10933 10934 10935 10937 10941 10944 10946 10949 10952 10953 10953 10955 10958 10961 10962 10964 10966 10968 10969 10971 10973 10975 10976 10977 10978 10979 10981 10982 10982 10982 10981 10982 10981 10981 10980 10979 10979 10978 10977 10975 10973 10971
10934 10934 10934 10933 10933 10933 10933 10932 10932 10932 10931 10930 10929 10928 10927 10926 10925 10924 10922 10921 10920 10919 10918 10916 10915 10913 10912 10912 10911 10911 10911 10910 10911 10911 10912 10912 10913 10914 10916 10917 10918 10920 10921 10922 10924 10927 10929 10929 10931 10934 10936 10939 10941 10944 10947 10950 10951 10951 10954 10956 10958 10960 10962 10964 10966 10968 10971 10973 10974 10975 10976 10978 10980 10981 10981 10981 10981 10981 10981 10980 10979 10978 10978 10977 10977 10976 10973 10971
10931 10931 10931 10931 10931 10930 10930 10930 10929 10929 10928 10927 10926 10925 10924 10923 10921 10920 10918 10918 10916 10915 10913 10911 10910 10909 10907 10906 10906 10906 10905 10905 10905 10905 10906 10906 10907 10908 10910 10911 10913 10914 10916 10918 10920 10923 10923 10924 10927 10930 10931 10934 10936 10938 10943 10947 10947 10946 10948 10953 10955 10956 10959 10961 10963 10966 10968 10970 10972 10973 10974 10976 10979 10980 10979 10980 10981 10981 10980 10978 10977 10977 10978 10977 10977 10976 10973 10971
10929 10929 10928 10928 10928 10928 10927 10927 10926 10926 10925 10924 10923 10922 10921 10919 10917 10916 10915 10914 10912 10911 10909 10907 10906 10904 10902 10902 10901 10900 10900 10900 10899 10900 10900 10900 10901 10903 10904 10906 10907 10909 10910 10913 10915 10918 10918 10920 10924 10925 10926 10930 10932 10935 10939 10943 10943 10943 10945 10948 10951 10953 10956 10958 10961 10963 10965 10968 10970 10971 10973 10975 10977 10978 10978 10979 10980 10980 10979 10977 10976 10977 10977 10977 10977 10976 10974 10971
10926 10926 10926 10925 10925 10925 10924 10924 10923 10923 10922 10921 10920 10919 10917 10915 10914 10912 10911 10910 10908 10906 10904 10903 10901 10899 10898 10897 10896 10895 10895 10895 10895 10894 10894 10895 10896 10897 10898 10900 10902 10903 10905 10908 10910 10912 10913 10916 10918 10919 10922 10926 10928 10931 10934 10937 10939 10940 10941 10943 10946 10950 10953 10955 10957 10960 10963 10965 10967 10968 10970 10973 10975 10977 10977 10978 10978 10978 10978 10977 10976 10976 10977 10977 10976 10976 10974 10971
10923 10923 10923 10922 10922 10922 10921 10921 10920 10920 10919 10918 10917 10915 10914 10912 10910 10908 10907 10906 10904 10902 10900 10899 10897 10895 10894 10892 10891 10891 10890 10890 10889 10889 10889 10890 10891 10892 10893 10894 10896 10898 10900 10902 10904 10907 10908 10910 10912 10913 10918 10921 10923 10925 10929 10933 10936 10937 10937 10938 10943 10946 10948 10951 10954 10957 10960 10962 10964 10965 10968 10971 10973 10975 10976 10977 10978 10977 10977 10977 10976 10976 10977 10976 10976 10975 10973 10972
10920 10920 10920 10919 10919 10919 10918 10918 10917 10916 10915 10914 10913 10912 10910 10908 10906 10905 10903 10902 10900 10898 10896 10894 10894 10892 10889 10888 10887 10886 10886 10885 10885 10884 10885 10885 10886 10886 10888 10889 10891 10892 10895 10897 10899 10901 10903 10905 10906 10908 10913 10916 10917 10919 10924 10929 10932 10934 10933 10935 10939 10941 10944 10948 10951 10953 10956 10959 10961 10963 10965 10968 10971 10973 10974 10976 10977 10976 10976 10976 10975 10976 10976 10976 10975 10974 10973 10972
10917 10917 10917 10916 10916 10916 10915 10915 10914 10913 10912 10911 10910 10908 10906 10904 10903 10901 10900 10898 10896 10894 10892 10890 10889 10888 10886 10884 10883 10882 10882 10881 10880 10880 10880 10881 10881 10882 10883 10884 10885 10887 10889 10891 10893 10895 10897 10900 10901 10903 10907 10910 10911 10913 10919 10925 10928 10930 10930 10932 10934 10937 10941 10944 10946 10949 10952 10955 10958 10960 10963 10966 10969 10972 10973 10975 10975 10973 10974 10975 10974 10974 10975 10974 10974 10974 10973 10971
10914 10914 10914 10913 10913 10912 10912 10911 10911 10910 10909 10908 10906 10905 10903 10901 10899 10897 10896 10894 10892 10890 10888 10886 10885 10884 10882 10880 10879 10878 10878 10877 10877 10876 10876 10876 10877 10877 10878 10879 10881 10882 10884 10886 10888 10890 10892 10894 10895 10897 10901 10904 10905 10908 10914 10920 10924 10926 10927 10929 10930 10933 10937 10939 10941 10944 10948 10951 10955 10958 10961 10964 10967 10970 10972 10973 10971 10970 10972 10973 10973 10973 10973 10973 10973 10973 10972 10970
10911 10911 10910 10910 10910 10909 10909 10908 10907 10906 10905 10904 10903 10902 10900 10898 10896 10894 10892 10891 10889 10886 10884 10882 10881 10880 10878 10877 10875 10874 10874 10874 10873 10873 10872 10872 10873 10873 10874 10875 10876 10877 10878 10880 10882 10884 10886 10888 10890 10892 10895 10898 10901 10905 10911 10916 10919 10922 10924 10926 10927 10929 10932 10934 10937 10941 10945 10948 10951 10954 10957 10961 10964 10968 10970 10970 10968 10968 10970 10971 10971 10971 10971 10971 10971 10972 10972 10970
10908 10907 10907 10907 10906 10906 10905 10905 10904 10903 10902 10901 10900 10898 10896 10894 10892 10890 10889 10887 10885 10883 10881 10879 10877 10876 10875 10873 10872 10871 10870 10870 10870 10870 10869 10869 10869 10870 10870 10871 10871 10872 10873 10875 10877 10879 10881 10884 10886 10888 10890 10894 10898 10902 10908 10912 10914 10917 10920 10922 10923 10925 10928 10930 10934 10938 10941 10944 10947 10950 10953 10957 10961 10964 10966 10966 10965 10966 10968 10969 10970 10969 10969 10969 10970 10971 10971 10970
10904 10904 10904 10903 10903 10902 10902 10901 10900 10899 10898 10897 10896 10895 10893 10891 10889 10887 10885 10883 10882 10880 10878 10876 10874 10872 10871 10870 10868 10867 10867 10866 10866 10866 10867 10867 10867 10867 10867 10867 10867 10868 10869 10870 10873 10875 10878 10880 10882 10883 10886 10890 10894 10898 10904 10908 10910 10914 10916 10917 10918 10920 10923 10926 10930 10934 10937 10940 10943 10946 10950 10953 10957 10959 10962 10963 10963 10965 10966 10967 10967 10967 10967 10968 10969 10970 10970 10970
10901 10901 10900 10900 10899 10899 10898 10898 10897 10896 10895 10894 10893 10891 10889 10887 10885 10883 10881 10880 10878 10876 10874 10873 10871 10869 10868 10866 10865 10864 10863 10863 10863 10863 10864 10864 10864 10864 10864 10864 10864 10864 10865 10867 10869 10871 10873 10875 10877 10879 10881 10885 10889 10894 10899 10903 10906 10909 10911 10912 10914 10916 10919 10923 10926 10930 10934 10937 10940 10943 10946 10950 10952 10955 10958 10959 10961 10962 10963 10965 10966 10966 10966 10967 10969 10970 10970 10970
10897 10897 10897 10896 10896 10895 10895 10894 10893 10892 10891 10890 10889 10887 10885 10883 10882 10880 10878 10876 10875 10873 10871 10869 10868 10866 10864 10862 10861 10860 10860 10860 10860 10860 10860 10861 10861 10861 10862 10862 10861 10861 10862 10864 10865 10867 10869 10870 10872 10874 10877 10880 10884 10889 10894 10898 10902 10904 10905 10907 10909 10912 10916 10920 10923 10926 10930 10934 10936 10939 10942 10946 10949 10951 10954 10956 10958 10960 10961 10963 10964 10964 10965 10967 10968 10969 10970 10969
10894 10894 10893 10893 10892 10892 10891 10891 10890 10889 10888 10887 10886 10884 10882 10879 10878 10875 10874 10872 10871 10870 10868 10866 10864 10863 10861 10859 10858 10857 10857 10857 10857 10857 10857 10858 10858 10859 10859 10859 10858 10858 10859 10861 10862 10863 10865 10866 10868 10870 10873 10876 10880 10884 10888 10892 10896 10897 10898 10901 10904 10909 10913 10916 10920 10923 10926 10929 10932 10935 10938 10942 10945 10948 10950 10952 10955 10956 10958 10960 10962 10962 10964 10966 10967 10968 10969 10969
10890 10890 10890 10889 10889 10888 10888 10887 10886 10885 10884 10883 10882 10880 10878 10876 10874 10872 10869 10868 10867 10867 10865 10862 10861 10859 10858 10856 10855 10854 10853 10854 10854 10854 10854 10855 10855 10856 10856 10856 10855 10855 10856 10858 10859 10860 10861 10862 10863 10865 10868 10872 10875 10879 10882 10885 10888 10890 10892 10896 10900 10905 10910 10914 10917 10920 10922 10925 10928 10931 10935 10938 10941 10944 10946 10948 10951 10953 10955 10958 10959 10960 10963 10965 10966 10967 10967 10967
10886 10886 10886 10885 10885 10884 10884 10883 10882 10881 10880 10880 10878 10877 10875 10873 10871 10869 10866 10863 10862 10863 10862 10860 10858 10857 10855 10853 10852 10852 10851 10851 10852 10852 10852 10852 10853 10853 10853 10853 10852 10852 10853 10856 10857 10857 10857 10857 10859 10861 10864 10867 10869 10872 10875 10878 10881 10885 10890 10894 10898 10902 10907 10910 10913 10916 10919 10922 10925 10928 10931 10934 10937 10940 10942 10945 10948 10950 10953 10955 10957 10959 10961 10963 10965 10966 10966 10966
10882 10882 10882 10882 10881 10880 10880 10879 10878 10877 10876 10876 10874 10873 10872 10870 10868 10866 10863 10859 10857 10857 10858 10857 10855 10854 10853 10851 10850 10849 10849 10849 10849 10849 10850 10850 10850 10850 10850 10850 10849 10849 10850 10852 10853 10853 10853 10853 10854 10856 10859 10861 10863 10866 10869 10872 10877 10882 10888 10892 10895 10899 10904 10907 10909 10912 10915 10918 10921 10924 10927 10930 10933 10936 10939 10943 10946 10948 10950 10953 10955 10957 10959 10961 10963 10964 10964 10964
10878 10878 10878 10878 10877 10876 10876 10875 10873 10873 10872 10871 10870 10869 10868 10867 10865 10864 10862 10857 10853 10852 10853 10853 10852 10851 10850 10849 10848 10847 10847 10847 10848 10847 10847 10847 10847 10847 10847 10846 10846 10846 10846 10847 10849 10850 10851 10849 10849 10852 10855 10856 10858 10862 10865 10868 10873 10879 10884 10888 10892 10895 10899 10903 10906 10909 10911 10914 10917 10920 10923 10926 10929 10931 10936 10940 10943 10946 10948 10950 10952 10954 10957 10960 10961 10962 10963 10963
10875 10874 10874 10874 10873 10872 10872 10871 10869 10868 10868 10867 10866 10865 10864 10863 10862 10861 10859 10856 10851 10849 10848 10848 10848 10848 10847 10846 10845 10845 10845 10845 10845 10845 10845 10844 10844 10843 10843 10843 10843 10843 10842 10843 10845 10847 10847 10846 10847 10849 10851 10852 10855 10858 10860 10863 10868 10874 10879 10883 10887 10890 10893 10898 10901 10904 10907 10910 10913 10916 10920 10923 10925 10928 10933 10937 10940 10943 10945 10947 10950 10952 10954 10958 10960 10960 10961 10962
10871 10870 10870 10869 10869 10868 10867 10866 10865 10864 10863 10862 10861 10860 10859 10859 10858 10857 10856 10853 10850 10847 10846 10844 10844 10844 10844 10843 10842 10842 10842 10842 10842 10842 10841 10841 10840 10840 10839 10839 10839 10839 10839 10839 10841 10843 10843 10842 10844 10846 10847 10848 10850 10852 10854 10858 10862 10868 10873 10878 10881 10884 10888 10893 10896 10900 10903 10906 10909 10912 10916 10919 10921 10925 10930 10934 10937 10939 10942 10945 10947 10950 10952 10956 10958 10959 10960 10961
10867 10866 10865 10865 10864 10864 10863 10862 10861 10859 10859 10858 10856 10855 10855 10854 10854 10853 10853 10850 10847 10844 10843 10841 10841 10841 10840 10840 10839 10839 10839 10839 10839 10838 10838 10837 10836 10836 10835 10835 10835 10835 10835 10836 10837 10839 10839 10839 10840 10842 10843 10844 10846 10847 10849 10852 10857 10862 10867 10872 10876 10879 10884 10888 10891 10895 10898 10901 10905 10909 10912 10916 10919 10922 10926 10930 10933 10936 10940 10942 10944 10948 10950 10953 10956 10957 10958 10960
10862 10862 10861 10860 10860 10859 10859 10857 10856 10855 10854 10853 10852 10851 10850 10849 10849 10849 10848 10847 10844 10841 10840 10838 10837 10837 10837 10836 10836 10835 10835 10836 10836 10835 10835 10834 10833 10832 10832 10832 10832 10832 10832 10832 10833 10834 10835 10835 10836 10838 10839 10839 10841 10842 10843 10847 10852 10855 10860 10866 10870 10874 10878 10883 10886 10889 10892 10896 10901 10905 10910 10913 10916 10919 10922 10926 10930 10933 10937 10939 10942 10945 10948 10951 10953 10955 10956 10958
10857 10857 10856 10856 10855 10854 10854 10853 10851 10850 10849 10848 10847 10846 10845 10844 10844 10844 10844 10842 10840 10838 10838 10836 10833 10833 10834 10833 10832 10832 10831 10832 10832 10831 10831 10830 10829 10829 10829 10829 10829 10829 10829 10829 10829 10830 10831 10831 10832 10833 10834 10834 10835 10836 10837 10841 10845 10849 10854 10859 10863 10867 10873 10877 10880 10882 10886 10892 10897 10902 10907 10910 10914 10916 10919 10923 10927 10930 10933 10936 10939 10943 10946 10948 10951 10953 10954 10956
10853 10852 10851 10850 10850 10849 10849 10848 10847 10846 10844 10843 10842 10841 10840 10839 10838 10839 10838 10837 10835 10834 10833 10833 10832 10830 10830 10830 10829 10829 10829 10828 10828 10828 10827 10826 10826 10825 10825 10826 10825 10825 10825 10825 10825 10826 10826 10827 10827 10828 10828 10828 10829 10830 10832 10836 10840 10843 10847 10853 10857 10862 10867 10871 10873 10876 10881 10888 10893 10898 10903 10906 10910 10913 10916 10919 10923 10926 10929 10932 10936 10940 10943 10946 10948 10950 10953 10955
10848 10847 10846 10845 10845 10844 10844 10843 10842 10841 10840 10838 10837 10837 10836 10834 10834 10834 10833 10832 10830 10829 10829 10828 10828 10827 10826 10827 10827 10827 10827 10826 10825 10824 10823 10822 10823 10822 10822 10821 10821 10822 10822 10821 10821 10821 10823 10823 10822 10822 10822 10823 10824 10826 10828 10832 10835 10837 10842 10847 10851 10855 10861 10864 10867 10871 10876 10883 10889 10893 10898 10903 10906 10910 10912 10916 10919 10923 10926 10929 10934 10938 10941 10943 10946 10948 10951 10953
10843 10842 10841 10840 10840 10839 10838 10838 10837 10836 10835 10833 10832 10832 10831 10830 10830 10829 10828 10827 10826 10825 10825 10823 10823 10823 10822 10823 10824 10824 10824 10823 10822 10821 10819 10819 10819 10818 10818 10817 10817 10817 10817 10817 10817 10818 10818 10818 10816 10816 10817 10819 10820 10822 10824 10825 10828 10832 10837 10840 10844 10849 10855 10859 10862 10866 10871 10878 10885 10889 10894 10898 10902 10905 10909 10912 10916 10920 10923 10927 10931 10936 10939 10941 10943 10946 10948 10951
10838 10837 10836 10835 10834 10834 10833 10833 10832 10831 10829 10828 10828 10827 10825 10824 10826 10825 10822 10822 10821 10821 10821 10820 10819 10818 10818 10819 10820 10819 10820 10819 10817 10817 10816 10816 10816 10815 10814 10813 10812 10813 10813 10813 10812 10812 10813 10812 10811 10812 10814 10814 10814 10815 10817 10818 10822 10827 10829 10832 10838 10843 10849 10854 10857 10861 10867 10873 10880 10885 10889 10894 10897 10901 10905 10908 10912 10916 10920 10924 10928 10932 10935 10938 10940 10943 10946 10948
10832 10831 10830 10830 10829 10829 10828 10827 10827 10825 10824 10823 10823 10822 10820 10819 10821 10821 10818 10817 10816 10815 10817 10817 10815 10814 10814 10816 10816 10814 10815 10815 10813 10813 10813 10812 10812 10811 10810 10809 10809 10809 10809 10808 10807 10806 10807 10807 10807 10808 10810 10808 10806 10807 10810 10813 10818 10821 10822 10827 10834 10838 10844 10850 10853 10857 10863 10869 10875 10880 10885 10889 10893 10897 10900 10904 10908 10912 10917 10921 10924 10928 10931 10934 10938 10941 10944 10947
10827 10825 10825 10825 10824 10824 10823 10822 10822 10820 10819 10818 10818 10817 10816 10814 10816 10816 10814 10813 10811 10810 10811 10812 10811 10810 10811 10813 10813 10811 10811 10811 10810 10809 10809 10808 10807 10807 10807 10806 10806 10805 10805 10804 10802 10801 10802 10803 10803 10803 10803 10802 10801 10803 10805 10807 10811 10814 10816 10822 10828 10833 10838 10844 10847 10852 10858 10864 10869 10874 10879 10884 10888 10892 10896 10900 10904 10909 10914 10918 10922 10925 10928 10931 10935 10938 10942 10946
10822 10820 10819 10820 10819 10818 10818 10817 10816 10815 10814 10813 10813 10812 10811 10810 10811 10812 10811 10809 10807 10806 10806 10807 10807 10806 10807 10809 10809 10808 10807 10807 10807 10805 10805 10804 10803 10803 10803 10802 10802 10802 10801 10800 10798 10797 10797 10798 10798 10797 10795 10796 10798 10800 10800 10800 10803 10807 10811 10816 10821 10825 10830 10835 10842 10848 10853 10857 10861 10867 10873 10877 10881 10887 10892 10897 10902 10906 10911 10915 10919 10922 10926 10929 10933 10936 10940 10944
10817 10814 10813 10814 10814 10813 10812 10811 10810 10809 10809 10808 10808 10808 10806 10805 10806 10807 10807 10806 10804 10802 10802 10803 10803 10803 10804 10804 10804 10804 10804 10803 10803 10801 10800 10799 10799 10799 10799 10798 10798 10798 10797 10795 10793 10794 10793 10792 10792 10790 10788 10790 10793 10794 10794 10793 10794 10798 10804 10809 10813 10816 10821 10826 10832 10840 10847 10852 10856 10862 10868 10873 10877 10884 10890 10895 10899 10904 10908 10912 10916 10920 10924 10928 10932 10935 10939 10942
10814 10810 10808 10809 10810 10808 10806 10805 10804 10803 10803 10803 10803 10803 10802 10801 10801 10802 10803 10802 10800 10800 10799 10798 10799 10799 10800 10800 10800 10800 10801 10800 10799 10798 10796 10794 10795 10795 10795 10794 10794 10794 10794 10791 10788 10789 10789 10787 10786 10785 10783 10783 10786 10788 10787 10785 10787 10791 10797 10801 10805 10808 10813 10818 10823 10829 10836 10844 10852 10859 10866 10871 10876 10882 10888 10892 10897 10900 10904 10908 10912 10916 10921 10926 10930 10934 10937 10940
10811 10807 10804 10805 10805 10803 10801 10799 10798 10797 10797 10797 10798 10798 10797 10797 10796 10797 10798 10798 10797 10797 10795 10794 10795 10795 10795 10796 10796 10796 10797 10796 10795 10794 10792 10791 10790 10790 10790 10791 10791 10790 10789 10787 10785 10784 10784 10782 10781 10780 10778 10777 10779 10781 10779 10778 10782 10786 10789 10794 10798 10802 10806 10811 10817 10822 10826 10834 10843 10852 10860 10866 10871 10877 10883 10888 10892 10895 10899 10903 10907 10912 10917 10922 10927 10931 10934 10937
10808 10805 10802 10800 10800 10798 10796 10795 10793 10792 10792 10791 10792 10793 10792 10792 10792 10792 10793 10794 10793 10793 10791 10791 10792 10792 10792 10792 10793 10793 10792 10792 10791 10790 10790 10788 10787 10786 10786 10787 10787 10786 10785 10784 10781 10779 10778 10778 10776 10775 10773 10771 10773 10774 10772 10772 10776 10779 10781 10785 10790 10795 10799 10804 10810 10815 10820 10826 10834 10842 10851 10859 10865 10871 10877 10881 10884 10888 10892 10897 10903 10908 10913 10918 10923 10927 10931 10935
10804 10802 10800 10797 10795 10793 10792 10790 10789 10788 10787 10785 10786 10787 10787 10787 10788 10788 10788 10790 10790 10789 10788 10787 10788 10788 10788 10788 10789 10789 10788 10788 10787 10786 10786 10785 10784 10783 10782 10782 10782 10781 10780 10780 10778 10775 10774 10774 10772 10769 10767 10766 10766 10767 10766 10766 10768 10771 10773 10777 10781 10785 10790 10796 10802 10808 10813 10820 10827 10834 10844 10853 10860 10865 10870 10874 10879 10882 10887 10893 10899 10904 10910 10915 10921 10925 10930 10934
10800 10798 10797 10794 10790 10788 10788 10786 10785 10783 10781 10780 10780 10781 10782 10782 10783 10783 10784 10785 10785 10784 10783 10784 10784 10785 10785 10785 10785 10785 10785 10784 10783 10782 10782 10782 10781 10780 10779 10779 10778 10776 10776 10776 10773 10771 10770 10769 10766 10764 10762 10761 10760 10760 10760 10760 10761 10763 10766 10769 10772 10776 10781 10788 10794 10801 10806 10814 10822 10830 10838 10846 10852 10858 10864 10870 10875 10879 10884 10890 10895 10901 10907 10913 10919 10924 10930 10935
10795 10795 10793 10788 10786 10786 10785 10782 10780 10778 10777 10775 10774 10775 10777 10777 10778 10779 10779 10780 10781 10780 10780 10780 10780 10781 10782 10782 10781 10781 10781 10780 10779 10778 10778 10778 10778 10777 10776 10775 10774 10773 10772 10771 10769 10767 10765 10764 10762 10759 10757 10756 10754 10753 10753 10753 10754 10756 10759 10761 10764 10769 10774 10780 10787 10794 10800 10808 10817 10825 10831 10835 10841 10849 10857 10865 10870 10876 10882 10887 10892 10897 10903 10909 10916 10922 10929 10935
10791 10791 10787 10783 10782 10783 10782 10778 10775 10774 10773 10771 10770 10771 10772 10772 10774 10775 10775 10775 10777 10777 10776 10776 10777 10778 10779 10779 10778 10778 10777 10777 10777 10776 10775 10775 10775 10775 10773 10772 10771 10769 10768 10767 10765 10763 10762 10760 10758 10755 10753 10752 10750 10748 10747 10747 10748 10750 10753 10755 10758 10763 10768 10773 10779 10787 10795 10803 10812 10819 10823 10826 10830 10839 10849 10857 10864 10871 10877 10883 10889 10894 10899 10905 10911 10917 10923 10928
10787 10786 10782 10778 10778 10779 10778 10775 10772 10770 10769 10767 10766 10766 10767 10767 10769 10771 10771 10771 10772 10772 10773 10773 10774 10775 10776 10775 10775 10774 10774 10774 10774 10774 10773 10772 10772 10772 10771 10769 10768 10766 10764 10763 10762 10760 10758 10756 10754 10751 10749 10747 10745 10743 10742 10742 10743 10744 10747 10750 10753 10757 10762 10767 10774 10782 10791 10799 10806 10812 10816 10819 10824 10832 10840 10848 10856 10863 10871 10879 10886 10892 10896 10901 10906 10911 10914 10918
10782 10781 10778 10775 10774 10774 10773 10771 10769 10766 10765 10764 10762 10761 10762 10763 10765 10767 10768 10768 10768 10768 10769 10769 10771 10772 10772 10772 10772 10772 10771 10771 10771 10771 10771 10770 10770 10769 10768 10767 10765 10763 10761 10760 10759 10757 10755 10752 10750 10748 10746 10744 10741 10739 10738 10738 10738 10739 10742 10745 10748 10752 10756 10762 10769 10777 10785 10793 10800 10806 10810 10815 10821 10828 10834 10841 10849 10857 10866 10874 10882 10889 10895 10898 10902 10905 10908 10911
10776 10776 10774 10771 10769 10768 10767 10766 10765 10763 10761 10760 10759 10758 10758 10759 10761 10763 10764 10764 10764 10764 10765 10766 10767 10768 10769 10769 10769 10769 10769 10769 10769 10769 10769 10768 10767 10766 10765 10764 10762 10760 10758 10756 10755 10754 10752 10749 10747 10746 10743 10741 10738 10736 10735 10735 10735 10736 10737 10740 10743 10747 10752 10759 10767 10775 10781 10787 10794 10799 10805 10811 10818 10824 10830 10837 10845 10853 10862 10871 10878 10885 10891 10895 10899 10902 10904 10907
10771 10771 10769 10767 10764 10763 10762 10762 10760 10758 10757 10756 10755 10754 10754 10755 10757 10759 10761 10761 10761 10761 10762 10763 10764 10765 10765 10766 10766 10767 10767 10767 10766 10767 10766 10766 10765 10764 10762 10761 10760 10758 10756 10753 10752 10751 10750 10747 10745 10743 10741 10739 10736 10734 10733 10732 10732 10733 10734 10736 10739 10743 10748 10754 10762 10769 10776 10782 10788 10793 10798 10806 10813 10819 10826 10835 10843 10851 10859 10867 10873 10879 10884 10890 10895 10898 10901 10904
10766 10765 10764 10761 10759 10758 10758 10757 10756 10754 10752 10752 10752 10751 10750 10751 10753 10755 10756 10757 10757 10758 10759 10759 10760 10761 10762 10763 10764 10764 10765 10765 10764 10764 10764 10763 10763 10762 10760 10759 10758 10756 10754 10751 10749 10748 10747 10745 10743 10741 10739 10736 10734 10732 10731 10731 10730 10730 10731 10732 10735 10739 10744 10749 10754 10761 10768 10775 10781 10786 10792 10800 10807 10815 10824 10832 10840 10847 10854 10861 10867 10873 10878 10884 10890 10895 10898 10900